Location: Betzi
(47.2343°N, 9.5260°E)
Time: 07:41:06
(UTC+00:00)

Meteor 2-10 Rocket - Visible Passes

Search period start: 06 October 2022 00:00
Search period end: 16 October 2022 00:00
Orbit: 734 x 884 km, 81.2° (Epoch: 05 October)

Date Brightness Start Highest point End Pass type
(mag) Time Alt. Az. Time Alt. Az. Time Alt. Az.
06 Oct 5.6 18:58:35 15° NE 18:58:35 15° NE 18:59:47 10° NNE visible
06 Oct 5.4 20:39:42 28° N 20:39:42 28° N 20:42:28 10° N visible
07 Oct 5.7 18:34:02 13° NE 18:34:02 13° NE 18:34:51 10° NE visible
07 Oct 5.1 20:15:08 32° N 20:15:08 32° N 20:18:07 10° N visible
07 Oct 6.5 21:56:14 13° NW 21:56:14 13° NW 21:58:05 10° NNW visible
08 Oct 6.4 04:56:38 10° NNE 05:00:01 16° ENE 05:03:19 10° E visible
08 Oct 5.7 18:09:23 11° NE 18:09:23 11° NE 18:09:36 10° NE visible
08 Oct 4.8 19:50:29 35° NNE 19:50:29 35° NNE 19:53:43 10° NNE visible
08 Oct 6.2 21:31:34 17° NW 21:31:34 17° NW 21:34:27 10° NNW visible
09 Oct 6.6 04:33:10 10° NNE 04:35:16 12° NE 04:37:21 10° ENE visible
09 Oct 4.5 19:25:41 38° NNE 19:25:41 38° NNE 19:29:14 10° NNE visible
09 Oct 5.9 21:06:45 22° NW 21:06:45 22° NW 21:10:31 10° NNW visible
10 Oct 4.3 19:00:38 40° NE 19:00:38 40° NE 19:04:42 10° NNE visible
10 Oct 5.5 20:41:41 29° WNW 20:41:41 29° WNW 20:46:25 10° N visible
11 Oct 4.2 18:35:03 36° E 18:35:03 36° E 18:40:04 10° NNE visible
11 Oct 5.0 20:16:02 36° W 20:16:54 38° WNW 20:22:13 10° N visible
12 Oct 5.7 05:00:09 10° N 05:04:51 29° ENE 05:09:22 10° SE visible
12 Oct 4.6 18:05:52 10° SE 18:10:38 27° E 18:15:20 10° NNE visible
12 Oct 4.5 19:46:45 10° SSW 19:52:23 50° WNW 19:57:57 10° N visible
13 Oct 6.1 04:36:04 10° NNE 04:40:12 22° ENE 04:44:14 10° ESE visible
13 Oct 4.9 17:42:19 10° SE 17:46:24 20° E 17:50:27 10° NE visible
13 Oct 4.0 19:22:08 10° SSW 19:27:54 67° WNW 19:33:37 10° N visible
13 Oct 6.6 21:08:53 10° WNW 21:11:05 12° NW 21:13:16 10° NNW visible
14 Oct 6.4 04:12:09 10° NNE 04:15:31 17° ENE 04:18:48 10° E visible
14 Oct 5.2 17:19:10 10° ESE 17:22:14 15° E 17:25:15 10° NE visible
14 Oct 3.7 18:57:39 10° S 19:03:28 89° W 19:09:12 10° N visible
14 Oct 6.3 20:42:53 10° W 20:46:21 16° WNW 20:49:47 10° NNW visible
15 Oct 6.6 03:48:38 10° NNE 03:50:47 12° ENE 03:52:55 10° E visible
15 Oct 3.6 18:33:20 10° S 18:39:05 69° E 18:44:44 10° NNE visible
15 Oct 6.0 20:17:24 10° WSW 20:21:40 21° WNW 20:25:53 10° NNW visible
